Regional Weather Roundup
Issued by NWS Sterling, VA

Home | Current Version | Previous Version | Graphics & Text | Print | Product List | Glossary On
Versions: 1 2 3 4 5 6 7 8 9 10 11 12 13 14 15 16 17 18 19 20 21 22 23 24 25 26 27 28 29 30 31 32 33 34 35 36 37 38 39 40 41 42 43 44 45 46 47 48 49 50
000
ASUS41 KLWX 041510
RWRLWX

REGIONAL WEATHER ROUNDUP
NATIONAL WEATHER SERVICE BALTIMORE MD/WASHINGTON DC
1100 AM EDT MON MAY 04 2015

Note: "FAIR" indicates few or no clouds below 12,000 feet
with no significant weather and/or obstructions to visibility.
 TC=TEMPERATURE CELSIUS

 * =Non NWS site. Station does not report precipitation (e.g. rain,
    snow, etc.), thunder, or fog.

DCZ001-MDZ009-015-VAZ040>042-051-053>054-041600-
WASHINGTON METRO

CITY           SKY/WX    TMP DP  RH WIND       PRES   REMARKS
WASHINGTON NAT SUNNY     73  54  51 S13       30.25S
DULLES         MOSUNNY   75  51  43 S7        30.23F
QUANTICO       SUNNY     69  57  65 S9        30.26S
COLLEGE PARK*  SUNNY     75  50  41 S3        30.24S
LEESBURG*      SUNNY     79  55  44 S7        30.24F
MANASSAS*      SUNNY     75  52  43 S6        30.24F
GAITHERSBURG*  SUNNY     77  52  41 S8        30.28S

$$

MDZ006>007-011-014-041600-
BALTIMORE METRO

CITY           SKY/WX    TMP DP  RH WIND       PRES   REMARKS
BWI AIRPORT    MOSUNNY   77  49  37 SW9       30.23S
MD SCIENCE CTR   N/A     76  52  43 MISG      30.23S
MARTIN STATE   SUNNY     72  57  60 SE6       30.25S
ANNAPOLIS      SUNNY     66  55  67 SE13      30.24S
FORT MEADE*    SUNNY     77  48  36 W7        30.26S

$$

MDZ012-015-019>023-041600-
MARYLAND EASTERN SHORE

CITY           SKY/WX    TMP DP  RH WIND       PRES   REMARKS
OCEAN CITY     SUNNY     76  51  41 SW8       30.28R
SALISBURY      SUNNY     77  51  40 SW9       30.27S
BAY BRIDGE AP*   N/A    N/A N/A N/A SE8       30.25S
CAMBRIDGE*     SUNNY     77  48  36 S7        30.26S
EASTON*        SUNNY     77  52  41 SW8       30.29S

$$

MDZ017>025-041600-
SOUTHERN MARYLAND

CITY           SKY/WX    TMP DP  RH WIND       PRES   REMARKS
PATUXENT RIVER SUNNY     76  51  41 SW9       30.26S
ST INIGOES     SUNNY     73  51  46 S7        30.27R
LEONARDTOWN*   SUNNY     75  46  35 SW8       30.28S

$$

MDZ003>005-041600-
NORTH CENTRAL MARYLAND

CITY           SKY/WX    TMP DP  RH WIND       PRES   REMARKS
FREDERICK*     SUNNY     77  41  27 SW9       30.25
HAGERSTOWN APT SUNNY     73  46  38 SW8       30.22F
WESTMINSTER*   SUNNY     75  45  33 W12       30.24R

$$

MDZ501>502-041600-
WESTERN MARYLAND

CITY           SKY/WX    TMP DP  RH WIND       PRES   REMARKS
OAKLAND*       SUNNY     70  41  35 SW13      30.28R
CUMBERLAND*    SUNNY     70  46  43 SW3       30.26F

$$

VAZ025>031-041600-
SHENANDOAH VALLEY

CITY           SKY/WX    TMP DP  RH WIND       PRES   REMARKS
WINCHESTER*    SUNNY     75  43  31 S6        30.23S
FRONT ROYAL*   FAIR      73  48  40 SW8       30.22F
LURAY*         FAIR      77  54  44 SW6       30.24F
NEW MARKET*    FAIR      74  51  44 SW7       30.23F
STAUNTON*      SUNNY     74  50  42 SW7       30.27F
WAYNESBORO*    FAIR      73  50  43 SW8       30.27S

$$

WVZ021-048>050-054>055-041600-
EASTERN WEST VIRGINIA PANHANDLE

CITY           SKY/WX    TMP DP  RH WIND       PRES   REMARKS
MARTINSBURG    SUNNY     75  50  41 SW5       30.22F
PETERSBURG*    SUNNY     73  49  42 CALM      30.23F

$$

VAZ036>039-050-041600-
CENTRAL FOOTHILLS

CITY           SKY/WX    TMP DP  RH WIND       PRES   REMARKS
CHARLOTTESVILL SUNNY     76  53  44 SE7       30.25S
CULPEPER*      NOT AVBL
ORANGE*        SUNNY     77  52  41 S9        30.26F
GORDONSVILLE*  FAIR      74  52  45 S7        30.25S
WARRENTON*     FAIR      78  56  46 S7        30.24S

$$

VAZ055>057-041600-
NORTH AND CENTRAL PIEDMONT

CITY           SKY/WX    TMP DP  RH WIND       PRES   REMARKS
FREDERICKSBRG* SUNNY     79  53  39 S6        30.25S
STAFFORD*      SUNNY     76  47  36 SW5       30.29S

$$

NCZ024-NYZ072-PAZ021-071-VAZ022-071-041600-
OTHER REGIONAL OBSERVATIONS

CITY           SKY/WX    TMP DP  RH WIND       PRES   REMARKS
NEW YORK CITY  MOSUNNY   78  44  29 VRB5      30.23F
PHILADELPHIA   MOSUNNY   76  47  35 SW7       30.24R
PITTSBURGH     MOSUNNY   75  40  28 SW9G22    30.18S
ROANOKE        SUNNY     71  52  50 S6        30.30S
RICHMOND       SUNNY     76  52  43 SW8       30.28S
RALEIGH        MOSUNNY   73  57  57 SW6       30.32S

$$

ANZ530>537-041600-
MARINE OBSERVATIONS

STATION/POSITION TIME  TEMP    WIND        PRES
                       AIR SEA DIR/SP/G
                 (UTC) (F)     (DEG/KT/KT) (MB)
THOMAS PT LIGHT  1500   65 60  160/ 11/ 12 1024.8S
BALT KEY BRIDGE  1400   64      90/  3/  3 1023.6F
COVE POINT       1400   72     250/  9/ 12 1025.2R
LEWISETTA        1400   70 63              1024.8R
SOLOMONS ISLAND  1400      61                N/A
PINEY POINT      1400          110/  4/  4   N/A

$$




USA.gov is the U.S. government's official web portal to all federal, state and local government web resources and services.